This is the latest recevied weather packets stored in our database for station/object OE-11049. If no packets are shown the sender has not sent any weather packets the latest 10 day(s).
| Time | Temp. | Humidity | Pressure | Rain* | Wind** | Luminosity | Snow |
|---|---|---|---|---|---|---|---|
| 1787874089 | 20° C | 74% | 1011.2 hPa | 0 mm | - | 0 W/m² | - |
| 1787873717 | 20.56° C | 74% | 1011.2 hPa | 0 mm | - | 0 W/m² | - |
| 1787873116 | 20.56° C | 73% | 1011.2 hPa | 0 mm | - | 0 W/m² | - |
| 1787872517 | 20.56° C | 73% | 1011.6 hPa | 0 mm | - | 0 W/m² | - |
| 1787871916 | 20.56° C | 72% | 1011.7 hPa | 0 mm | - | 0 W/m² | - |
| 1787870490 | 21.11° C | 72% | 1011.8 hPa | 0 mm | - | 0 W/m² | - |
| 1787870117 | 21.11° C | 72% | 1011.9 hPa | 0 mm | - | 0 W/m² | - |
| 1787869517 | 21.11° C | 73% | 1011.9 hPa | 0 mm | - | 0 W/m² | - |
| 1787868690 | 21.11° C | 72% | 1011.9 hPa | 0 mm | - | 0 W/m² | - |
| 1787868316 | 22.22° C | 67% | 1011.9 hPa | 0 mm | - | 0 W/m² | - |
| 1787867717 | 22.22° C | 67% | 1012 hPa | 0 mm | - | 0 W/m² | - |
| 1787866890 | 22.22° C | 67% | 1012 hPa | 0 mm | - | 0 W/m² | - |
| 1787866516 | 22.22° C | 66% | 1011.9 hPa | 0 mm | - | 0 W/m² | - |
| 1787865917 | 22.78° C | 65% | 1011.9 hPa | 0 mm | - | 0 W/m² | - |
| 1787865090 | 23.89° C | 61% | 1011.7 hPa | 0 mm | - | 0 W/m² | - |
| 1787864716 | 23.89° C | 61% | 1011.8 hPa | 0 mm | - | 0 W/m² | - |
| 1787864116 | 23.89° C | 59% | 1011.6 hPa | 0 mm | - | 0 W/m² | - |
| 1787863290 | 23.89° C | 59% | 1012 hPa | 0 mm | - | 0 W/m² | - |
| 1787862917 | 24.44° C | 58% | 1011.7 hPa | 0 mm | - | 0 W/m² | - |
| 1787862317 | 24.44° C | 58% | 1011.7 hPa | 0 mm | - | 0 W/m² | - |
| 1787861490 | 24.44° C | 58% | 1011.7 hPa | 0 mm | - | 0 W/m² | - |
| 1787861117 | 24.44° C | 58% | 1011.6 hPa | 0 mm | - | 0 W/m² | - |
| 1787860517 | 24.44° C | 58% | 1011.5 hPa | 0 mm | - | 0 W/m² | - |
| 1787859691 | 24.44° C | 60% | 1011.6 hPa | 0 mm | - | 0 W/m² | - |
| 1787859317 | 24.44° C | 58% | 1011.6 hPa | 0 mm | - | 0 W/m² | - |
* Rain latest hour (hover to see other rain measurements)
** Current wind speed in m/s (hover to see current wind gust speed)